Simultaneous Nadir Overpasses (SNOs) Predictions

Prediction of SNOs between LANDSAT-8 and METOP-A Satellite Orbit:

Table of predicted SNOs for the next 14.0 days since TLE Epoch: 7/4/2020
Index Date (LANDSAT-8) Time (LANDSAT-8) Lat,Lon (LANDSAT-8) SZA (LANDSAT-8 ) Date (METOP-A) Time (METOP-A) Lat,Lon (METOP-A) SZA (METOP-A ) Distance(km) Time Diff (sec)
1 07/06/2020 01:26:18 -81.47, 24.84 118.55 07/06/2020 01:25:24 -81.47, 24.72 118.58 1.97 54
2 07/06/2020 02:15:44 81.47,-167.40 61.48 07/06/2020 02:16:04 81.46,-167.54 61.47 2.46 20
3 07/08/2020 21:00:34 -81.47, 91.44 118.22 07/08/2020 20:59:45 -81.47, 91.32 118.26 2.16 49
4 07/08/2020 21:50:01 81.46,-101.21 61.74 07/08/2020 21:50:26 81.47,-101.36 61.74 2.56 25
5 07/11/2020 16:34:51 -81.46, 157.62 117.91 07/11/2020 16:34:07 -81.47, 157.50 117.93 2.16 44
6 07/11/2020 17:24:17 81.47, -34.66 62.11 07/11/2020 17:24:47 81.46, -34.80 62.11 2.35 30
7 07/14/2020 12:09:06 -81.47,-135.83 117.49 07/14/2020 12:08:27 -81.47,-135.93 117.52 1.66 39
8 07/14/2020 12:58:32 81.47, 31.87 62.53 07/14/2020 12:59:07 81.46, 31.74 62.53 2.27 35
9 07/17/2020 07:43:22 -81.47, -69.31 117.02 07/17/2020 07:42:48 -81.46, -69.37 117.05 1.40 34
